sat.trackr.live / text

‹ back to catalog

STARLINK-31676

NORAD 59900 · 2024-100R

PAYLOAD ACTIVE UNKNOWN

§ Identity

Operator
Country
US
Launch date
2024-05-28
Launch site
AFETR
Launch vehicle
Mass (kg)
RCS (m²)

Purposes: comms

External: N2YO · Heavens-Above · Gunter

§ Orbital elements

Epoch: 2026-09-21T05:53:42.680832Z

Period
94.27 min
Inclination
43.0020°
Eccentricity
0.0001210
Mean motion
15.27575096 rev/d
Perigee alt
482.2 km
Apogee alt
483.9 km
Semi-major
6,861.2 km
B*
3.1382e-6
RAAN
101.0831°
Arg perigee
274.7344°
Mean anomaly
85.3370°
Rev number
13,095

§ Raw data

STARLINK-316761 59900U 24100R   26264.24563288 -.00000176  00000+0  31382-5 0  99942 59900  43.0020 101.0831 0001210 274.7344  85.3370 15.27575096130954

JSON: /api/v1/satellites/59900 · /tle

For live sub-satellite position, see the globe view (requires WebGL).

§ Visibility from observer

Set your observer location to see the next 7 days of passes ≥ 10°. The values pass through the URL so the page stays shareable.

No JS? Fill the form by hand. The geolocation button needs JavaScript.